DLH785 LXGB-EDDS

Flight info

Callsign DLH785
Flight time N/A
Altitude 43000
Route 360912N0051521W 360912N0051359W DCT XAVIR M985 MGA N869 BLN L27 YAKXU N871 TOPTU DCT NARAK DCT NINUN UN871 OMASI N871 DITON T163 LADOL DCT REUTL REUTL1W
Aircraft A359/H-SDE2E3GHIJ3J4J5LM1ORWXY/LB1D1

Departure

Time 2026-05-07 18:53
Airport Gibraltar Airport (LXGB)

Arrival

Time N/A
Airport Stuttgart Airport (EDDS)
Time Latitude Longitude Altitude Speed Heading
2026-05-07 18:44 36.15290 -5.34673 28 ft 0 kts
2026-05-07 18:47 36.15276 -5.34674 27 ft 4 kts
2026-05-07 18:47 36.15250 -5.34679 27 ft 4 kts 23°
2026-05-07 18:47 36.15231 -5.34696 30 ft 4 kts 72°
2026-05-07 18:48 36.15229 -5.34706 31 ft 0 kts 90°
2026-05-07 18:49 36.15229 -5.34685 31 ft 8 kts 86°
2026-05-07 18:49 36.15233 -5.34559 27 ft 20 kts 90°
2026-05-07 18:50 36.15239 -5.34360 22 ft 26 kts 87°
2026-05-07 18:50 36.15241 -5.34298 21 ft 1 kts 87°
2026-05-07 18:50 36.15232 -5.34245 26 ft 4 kts 131°
2026-05-07 18:50 36.15192 -5.34234 27 ft 9 kts 168°
2026-05-07 18:51 36.15163 -5.34224 25 ft 2 kts 198°
2026-05-07 18:51 36.15149 -5.34250 25 ft 5 kts 250°
2026-05-07 18:51 36.15146 -5.34287 24 ft 0 kts 266°
2026-05-07 18:52 36.15146 -5.34293 24 ft 13 kts 266°
2026-05-07 18:52 36.15123 -5.34942 30 ft 134 kts 267°
2026-05-07 18:53 36.15082 -5.36328 782 ft 175 kts 266°
2026-05-07 18:53 36.15022 -5.37903 2004 ft 188 kts 269°
2026-05-07 18:53 36.14387 -5.39304 2997 ft 199 kts 217°
2026-05-07 18:53 36.13009 -5.39568 3968 ft 215 kts 167°
2026-05-07 18:54 36.11817 -5.38392 4870 ft 234 kts 125°
2026-05-07 18:54 36.11459 -5.36376 5710 ft 255 kts 85°
2026-05-07 18:54 36.12231 -5.34342 6600 ft 273 kts 54°
2026-05-07 18:54 36.13493 -5.32515 7496 ft 284 kts 49°
2026-05-07 18:55 36.14726 -5.30569 8536 ft 290 kts 61°
2026-05-07 18:55 36.15299 -5.28205 9722 ft 290 kts 91°
2026-05-07 18:55 36.14859 -5.25775 10544 ft 300 kts 120°
2026-05-07 18:55 36.13451 -5.23796 11015 ft 319 kts 148°
2026-05-07 18:56 36.11342 -5.22837 11652 ft 330 kts 174°
2026-05-07 18:56 36.09062 -5.22653 12616 ft 336 kts 180°
2026-05-07 18:56 36.06707 -5.22447 13628 ft 343 kts 175°
2026-05-07 18:56 36.04350 -5.21811 14505 ft 353 kts 165°
2026-05-07 18:57 36.02082 -5.20519 15381 ft 365 kts 152°
2026-05-07 18:57 36.00062 -5.18532 16250 ft 378 kts 139°
2026-05-07 18:57 35.98424 -5.15919 17065 ft 392 kts 124°
2026-05-07 18:57 35.97287 -5.12802 17872 ft 406 kts 111°
2026-05-07 18:58 35.96740 -5.09333 18614 ft 418 kts 97°
2026-05-07 18:58 35.96856 -5.05711 19347 ft 428 kts 82°
2026-05-07 18:58 35.97661 -5.02141 20120 ft 435 kts 68°
2026-05-07 18:58 35.98565 -4.99923 20622 ft 439 kts 58°
2026-05-07 18:59 36.00447 -4.96946 21398 ft 442 kts 43°
2026-05-07 18:59 36.02861 -4.94597 22187 ft 442 kts 27°
2026-05-07 18:59 36.05626 -4.92973 23043 ft 441 kts 17°
2026-05-07 18:59 36.08520 -4.91679 23765 ft 444 kts 13°
2026-05-07 19:00 36.11482 -4.90521 24465 ft 447 kts 11°
2026-05-07 19:00 36.14433 -4.89234 25181 ft 455 kts 18°
2026-05-07 19:00 36.17281 -4.87451 25971 ft 461 kts 24°
2026-05-07 19:00 36.20078 -4.85464 26675 ft 466 kts 26°
2026-05-07 19:01 36.22859 -4.83358 27332 ft 471 kts 27°
2026-05-07 19:01 36.25641 -4.81178 28000 ft 476 kts 28°
2026-05-07 19:01 36.28441 -4.78954 28649 ft 480 kts 28°
2026-05-07 19:01 36.31267 -4.76705 29305 ft 484 kts 28°
2026-05-07 19:02 36.34116 -4.74443 29935 ft 489 kts 27°
2026-05-07 19:02 36.36997 -4.72164 30437 ft 493 kts 27°
2026-05-07 19:02 36.39901 -4.69873 30938 ft 497 kts 27°
2026-05-07 19:02 36.42833 -4.67563 31421 ft 502 kts 27°
2026-05-07 19:03 36.45793 -4.65232 31884 ft 506 kts 27°
2026-05-07 19:03 36.48778 -4.62879 32355 ft 509 kts 27°
2026-05-07 19:03 36.51782 -4.60508 32822 ft 513 kts 26°
2026-05-07 19:03 36.54799 -4.58124 33271 ft 516 kts 26°
2026-05-07 19:04 36.57834 -4.55723 33751 ft 517 kts 26°
2026-05-07 19:04 36.60871 -4.53317 34200 ft 519 kts 26°
2026-05-07 19:04 36.63929 -4.50895 34503 ft 522 kts 26°
2026-05-07 19:04 36.66953 -4.48495 35009 ft 521 kts 26°
2026-05-07 19:05 36.70049 -4.46034 35462 ft 521 kts 26°
2026-05-07 19:05 36.73061 -4.43637 35921 ft 521 kts 26°
2026-05-07 19:05 36.76152 -4.41176 36390 ft 520 kts 26°
2026-05-07 19:05 36.79157 -4.38785 36835 ft 519 kts 26°
2026-05-07 19:06 36.82295 -4.36624 37282 ft 511 kts 17°
2026-05-07 19:06 36.88732 -4.32935 38184 ft 507 kts 16°
2026-05-07 19:06 36.91954 -4.31162 38646 ft 506 kts 15°
2026-05-07 19:07 36.95190 -4.29402 38875 ft 508 kts 15°
2026-05-07 19:07 36.98429 -4.27642 39157 ft 508 kts 16°
2026-05-07 19:07 37.01668 -4.25878 39469 ft 507 kts 16°
2026-05-07 19:07 37.04901 -4.24112 39736 ft 508 kts 16°
2026-05-07 19:08 37.08139 -4.22337 40048 ft 508 kts 17°
2026-05-07 19:08 37.11376 -4.20557 40339 ft 508 kts 17°
2026-05-07 19:08 37.14611 -4.18775 40653 ft 508 kts 17°
2026-05-07 19:08 37.17849 -4.16988 40936 ft 509 kts 17°
2026-05-07 19:09 37.21092 -4.15198 41212 ft 509 kts 18°
2026-05-07 19:09 37.24331 -4.13409 41474 ft 509 kts 18°
2026-05-07 19:09 37.27573 -4.11616 41725 ft 509 kts 18°
2026-05-07 19:09 37.30813 -4.09822 41955 ft 509 kts 18°
2026-05-07 19:10 37.34052 -4.08028 42177 ft 510 kts 18°
2026-05-07 19:10 37.37303 -4.06226 42393 ft 510 kts 18°
2026-05-07 19:10 37.40546 -4.04426 42636 ft 510 kts 19°
2026-05-07 19:10 37.43799 -4.02618 42889 ft 511 kts 19°
2026-05-07 19:11 37.50304 -3.99000 42914 ft 511 kts 19°
2026-05-07 19:11 37.56804 -3.95376 42911 ft 511 kts 19°
2026-05-07 19:12 37.63310 -3.91743 42912 ft 511 kts 19°
2026-05-07 19:12 37.69816 -3.88102 42907 ft 511 kts 19°
2026-05-07 19:13 37.76316 -3.84458 42899 ft 511 kts 19°
2026-05-07 19:13 37.82818 -3.80805 42903 ft 511 kts 19°
2026-05-07 19:14 37.89281 -3.77168 42905 ft 511 kts 19°
2026-05-07 19:14 37.95775 -3.73507 42908 ft 511 kts 19°
2026-05-07 19:15 38.02279 -3.69833 42893 ft 512 kts 19°
2026-05-07 19:15 38.08776 -3.66155 42910 ft 512 kts 19°
2026-05-07 19:16 38.15277 -3.62468 42915 ft 512 kts 19°
2026-05-07 19:16 38.21871 -3.59107 42909 ft 509 kts 14°
2026-05-07 19:17 38.28543 -3.56096 42909 ft 509 kts 14°
2026-05-07 19:17 38.35211 -3.53052 42911 ft 509 kts 15°
2026-05-07 19:18 38.41858 -3.49936 42922 ft 509 kts 15°
2026-05-07 19:18 38.48505 -3.46782 42921 ft 509 kts 15°
2026-05-07 19:19 38.55150 -3.43620 42923 ft 509 kts 15°
2026-05-07 19:19 38.61784 -3.40460 42932 ft 509 kts 15°
2026-05-07 19:20 38.68413 -3.37298 42923 ft 508 kts 15°
2026-05-07 19:20 38.75039 -3.34132 42930 ft 508 kts 15°
2026-05-07 19:21 38.81618 -3.30982 42929 ft 508 kts 15°
2026-05-07 19:21 38.88241 -3.27806 42932 ft 508 kts 16°
2026-05-07 19:22 38.94869 -3.24619 42931 ft 508 kts 16°
2026-05-07 19:22 39.01490 -3.21431 42930 ft 508 kts 15°
2026-05-07 19:23 39.08107 -3.18240 42957 ft 508 kts 16°
2026-05-07 19:23 39.14729 -3.15033 42941 ft 508 kts 16°
2026-05-07 19:24 39.21347 -3.11822 42937 ft 508 kts 16°
2026-05-07 19:24 39.27962 -3.08608 42938 ft 508 kts 16°
2026-05-07 19:25 39.34583 -3.05386 42945 ft 508 kts 16°
2026-05-07 19:25 39.41215 -3.02152 42950 ft 510 kts 16°
2026-05-07 19:26 39.47861 -2.98891 42949 ft 511 kts 16°
2026-05-07 19:26 39.54509 -2.95614 42966 ft 511 kts 16°
2026-05-07 19:27 39.61158 -2.92334 42949 ft 512 kts 16°
2026-05-07 19:27 39.67818 -2.89051 42958 ft 512 kts 16°
2026-05-07 19:28 39.74486 -2.85762 42955 ft 512 kts 16°
2026-05-07 19:28 39.81143 -2.82470 42952 ft 512 kts 16°
2026-05-07 19:29 39.87806 -2.79169 42954 ft 512 kts 16°
2026-05-07 19:29 39.94469 -2.75858 42954 ft 512 kts 16°
2026-05-07 19:31 40.13663 -2.66286 42951 ft 511 kts 17°
2026-05-07 19:31 40.20294 -2.62964 42951 ft 509 kts 17°
2026-05-07 19:32 40.26916 -2.59642 42958 ft 508 kts 17°
2026-05-07 19:32 40.33508 -2.56327 42961 ft 507 kts 17°
2026-05-07 19:33 40.39997 -2.52618 42960 ft 510 kts 22°
2026-05-07 19:33 40.46373 -2.48515 42967 ft 510 kts 23°
2026-05-07 19:34 40.52713 -2.44350 42960 ft 509 kts 23°
2026-05-07 19:34 40.59047 -2.40178 42970 ft 509 kts 23°
2026-05-07 19:35 40.65390 -2.36001 42968 ft 509 kts 23°
2026-05-07 19:35 40.71725 -2.31827 42969 ft 509 kts 23°
2026-05-07 19:36 40.78066 -2.27641 42973 ft 509 kts 23°
2026-05-07 19:36 40.84397 -2.23452 42977 ft 509 kts 23°
2026-05-07 19:37 40.90681 -2.19284 42988 ft 509 kts 24°
2026-05-07 19:37 40.97012 -2.15077 42981 ft 509 kts 24°
2026-05-07 19:38 41.03351 -2.10855 42984 ft 510 kts 24°
2026-05-07 19:38 41.09584 -2.06363 42985 ft 512 kts 28°
2026-05-07 19:39 41.15647 -2.01395 42981 ft 512 kts 30°
2026-05-07 19:39 41.21679 -1.96345 42976 ft 513 kts 30°
2026-05-07 19:40 41.27706 -1.91276 42992 ft 512 kts 30°
2026-05-07 19:40 41.33741 -1.86202 42994 ft 514 kts 30°
2026-05-07 19:41 41.39791 -1.81110 42982 ft 515 kts 30°
2026-05-07 19:41 41.45853 -1.75997 42980 ft 516 kts 30°
2026-05-07 19:42 41.51910 -1.70877 42978 ft 516 kts 30°
2026-05-07 19:42 41.57926 -1.65780 42985 ft 515 kts 30°
2026-05-07 19:43 41.63979 -1.60639 42977 ft 515 kts 30°
2026-05-07 19:43 41.70034 -1.55485 42972 ft 515 kts 30°
2026-05-07 19:44 41.76083 -1.50325 42969 ft 516 kts 30°
2026-05-07 19:44 41.82139 -1.45148 42971 ft 517 kts 30°
2026-05-07 19:45 41.88205 -1.39950 42974 ft 517 kts 30°
2026-05-07 19:45 41.94271 -1.34739 42980 ft 517 kts 30°
2026-05-07 19:46 42.00331 -1.29522 42982 ft 517 kts 31°
2026-05-07 19:46 42.06354 -1.24325 42981 ft 518 kts 31°
2026-05-07 19:47 42.12243 -1.18618 42982 ft 519 kts 37°
2026-05-07 19:47 42.17859 -1.12486 42980 ft 520 kts 38°
2026-05-07 19:48 42.23416 -1.06296 42992 ft 522 kts 38°
2026-05-07 19:48 42.29005 -1.00051 42987 ft 522 kts 38°
2026-05-07 19:49 42.34607 -0.93792 42990 ft 522 kts 38°
2026-05-07 19:49 42.40204 -0.87528 42998 ft 522 kts 38°
2026-05-07 19:50 42.45218 -0.80395 42999 ft 523 kts 50°
2026-05-07 19:50 42.49729 -0.72650 43007 ft 524 kts 52°
2026-05-07 19:51 42.54154 -0.64803 43011 ft 524 kts 52°
2026-05-07 19:51 42.58570 -0.56947 43017 ft 524 kts 52°
2026-05-07 19:52 42.62995 -0.49093 43014 ft 523 kts 52°
2026-05-07 19:52 42.67415 -0.41244 43018 ft 523 kts 52°
2026-05-07 19:53 42.71832 -0.33381 43010 ft 523 kts 52°
2026-05-07 19:53 42.76243 -0.25507 43003 ft 523 kts 52°
2026-05-07 19:54 42.80924 -0.17954 43001 ft 522 kts 43°
2026-05-07 19:54 42.86148 -0.11177 42988 ft 522 kts 41°
2026-05-07 19:55 42.91491 -0.04483 42969 ft 522 kts 41°
2026-05-07 19:55 42.96846 0.02217 42987 ft 522 kts 41°
2026-05-07 19:56 43.02186 0.08939 43001 ft 522 kts 41°
2026-05-07 19:56 43.07516 0.15682 42982 ft 522 kts 41°
2026-05-07 19:57 43.12842 0.22441 42968 ft 522 kts 42°
2026-05-07 19:57 43.18162 0.29208 42952 ft 522 kts 42°
2026-05-07 19:58 43.23478 0.35986 42982 ft 522 kts 42°
2026-05-07 19:58 43.28793 0.42779 42948 ft 521 kts 42°
2026-05-07 19:59 43.34092 0.49569 42945 ft 521 kts 42°
2026-05-07 19:59 43.39386 0.56370 42962 ft 521 kts 42°
2026-05-07 20:00 43.44678 0.63183 42958 ft 521 kts 42°
2026-05-07 20:00 43.49962 0.70004 42959 ft 521 kts 42°
2026-05-07 20:01 43.55240 0.76837 42950 ft 520 kts 42°
2026-05-07 20:01 43.60502 0.83667 42965 ft 519 kts 42°
2026-05-07 20:02 43.65762 0.90509 42960 ft 519 kts 42°
2026-05-07 20:02 43.71007 0.97349 42950 ft 519 kts 42°
2026-05-07 20:03 43.76252 1.04206 42951 ft 519 kts 42°
2026-05-07 20:03 43.81489 1.11071 42971 ft 519 kts 43°
2026-05-07 20:04 43.86724 1.17951 42952 ft 518 kts 43°
2026-05-07 20:04 43.91910 1.24783 42955 ft 517 kts 43°
2026-05-07 20:05 43.97157 1.31714 42956 ft 517 kts 43°
2026-05-07 20:05 44.02337 1.38572 42973 ft 517 kts 43°
2026-05-07 20:06 44.07539 1.45479 42963 ft 517 kts 43°
2026-05-07 20:06 44.12735 1.52394 42963 ft 517 kts 43°
2026-05-07 20:07 44.17928 1.59323 42969 ft 517 kts 43°
2026-05-07 20:07 44.23114 1.66260 42970 ft 517 kts 43°
2026-05-07 20:08 44.28078 1.73494 42972 ft 518 kts 52°
2026-05-07 20:08 44.31531 1.82273 42973 ft 517 kts 68°
2026-05-07 20:09 44.34159 1.91630 42968 ft 518 kts 70°
2026-05-07 20:10 44.37873 2.05750 42982 ft 518 kts 70°
2026-05-07 20:10 44.40372 2.15205 43005 ft 518 kts 70°
2026-05-07 20:11 44.42884 2.24661 42990 ft 518 kts 70°
2026-05-07 20:11 44.45390 2.34113 42989 ft 519 kts 70°
2026-05-07 20:12 44.47892 2.43589 42995 ft 519 kts 70°
2026-05-07 20:12 44.50384 2.53074 42993 ft 519 kts 70°
2026-05-07 20:13 44.52871 2.62577 42993 ft 519 kts 70°
2026-05-07 20:13 44.55349 2.72081 42996 ft 519 kts 70°
2026-05-07 20:14 44.57821 2.81604 43005 ft 520 kts 70°
2026-05-07 20:14 44.60283 2.91125 43007 ft 519 kts 70°
2026-05-07 20:15 44.62736 3.00651 43006 ft 519 kts 70°
2026-05-07 20:15 44.65182 3.10187 43009 ft 519 kts 70°
2026-05-07 20:16 44.67620 3.19734 43008 ft 519 kts 71°
2026-05-07 20:16 44.69642 3.27678 43010 ft 519 kts 71°
2026-05-07 20:17 44.72461 3.38803 43009 ft 519 kts 71°
2026-05-07 20:17 44.74486 3.46824 43010 ft 519 kts 71°
2026-05-07 20:18 44.77049 3.56327 43016 ft 520 kts 64°
2026-05-07 20:18 44.80392 3.65270 43012 ft 519 kts 61°
2026-05-07 20:19 44.83904 3.74168 43013 ft 520 kts 60°
2026-05-07 20:19 44.87431 3.83049 43008 ft 520 kts 60°
2026-05-07 20:20 44.90949 3.91971 43010 ft 520 kts 60°
2026-05-07 20:20 44.94451 4.00908 43020 ft 520 kts 61°
2026-05-07 20:21 44.97938 4.09845 43015 ft 520 kts 61°
2026-05-07 20:21 45.01419 4.18797 43019 ft 520 kts 61°
2026-05-07 20:22 45.04895 4.27752 43019 ft 520 kts 61°
2026-05-07 20:22 45.08369 4.36747 43021 ft 521 kts 61°
2026-05-07 20:23 45.11835 4.45748 43020 ft 521 kts 61°
2026-05-07 20:23 45.12982 4.48733 43015 ft 521 kts 61°